Regional Weather Roundup
Issued by NWS

Home | Current Version | Previous Version | Text Only | Print | Product List | Glossary Off
Versions: 1 2 3 4 5 6 7 8 9 10 11 12 13 14 15 16 17 18 19 20 21 22 23 24 25 26 27 28 29 30 31 32 33 34 35 36 37 38 39 40 41 42 43 44 45 46 47 48 49 50

000
ASUS43 KFSD 061210
RWRSD

WEATHER ROUNDUP FOR SOUTH DAKOTA
NATIONAL WEATHER SERVICE SIOUX FALLS SD
600 AM CST TUE DEC 06 2016

NOTE: "FAIR" INDICATES FEW OR NO CLOUDS BELOW 12,000 FEET WITH NO
SIGNIFICANT WEATHER AND/OR OBSTRUCTIONS TO VISIBILITY.


SDZ001>005-009-010-012>017-061300-
NORTHWEST AND NORTH CENTRAL SOUTH DAKOTA

CITY           SKY/WX    TMP DP  RH WIND       PRES   REMARKS
BUFFALO          N/A      4  -2  76 NW33G41   29.85S WCI -22
FAITH            N/A      7   3  84 NW31G37   29.88S WCI -17
MOBRIDGE       LGT SNOW  14   7  73 NW28G41   29.79R WCI  -6
$$

SDZ012>016-024>037-041>051-057-063-072>074-061300-
SOUTHWEST AND SOUTH CENTRAL SOUTH DAKOTA

CITY           SKY/WX    TMP DP  RH WIND       PRES   REMARKS
RAPID CTY ARPT CLEAR     11   2  67 N12       29.93S WCI  -3
PIERRE         CLOUDY    13   5  70 NW28G44   29.92R WCI  -8
CUSTER         CLEAR      7  -2  66 W17G25    29.78S WCI -12
ELLSWORTH AFB  CLEAR     11   1  63 N16       29.91S WCI  -5
PHILIP         CLOUDY    12   3  67 W21G32    29.99R WCI  -7
PINE RIDGE     CLEAR      9   4  80 W12       29.95S WCI  -6
SPEARFISH      FAIR      10   0  61 W18G31    29.92S WCI  -8
WINNER         FAIR      15   6  67 W18G30    29.94S WCI  -2
$$

SDZ004>011-016>023-039-040-061300-
NORTHEAST SOUTH DAKOTA

CITY           SKY/WX    TMP DP  RH WIND       PRES   REMARKS
ABERDEEN       LGT SNOW  16   9  74 W28G38    29.68R WCI  -4
WATERTOWN      LGT SNOW  14   8  77 W29G40    29.66F WCI  -7
BROOKINGS      FLURRIES  14   8  77 W28G35    29.74F WCI  -6
SISSETON         N/A     18  12  77 W21G35    29.57F WCI   1
$$

SDZ017-020-022-023-036>040-048>070-061300-
SOUTHEAST SOUTH DAKOTA

CITY           SKY/WX    TMP DP  RH WIND       PRES   REMARKS
SIOUX FALLS    FLURRIES  18  11  74 W18G28    29.84F WCI   2
HURON          CLOUDY    14   7  73 W28G36    29.84F WCI  -6
CHAMBERLAIN    CLEAR     16   8  70 W23G36    29.92R WCI  -3
MITCHELL       CLOUDY    18  10  71 W16G26    29.90R WCI   3
YANKTON        CLEAR     18   9  68 W15G21    29.91S WCI   3
$$

ABBREVIATIONS USED IN REMARKS
   TC - TEMPERATURE IN CELSIUS
  WCI - WIND CHILL INDEX
   HX - HEAT INDEX
  VSB - VISIBILITY




USA.gov is the U.S. government's official web portal to all federal, state and local government web resources and services.